Theta_e
305 293 290 290 294 296 300 301 300 300 299 299 299 298 297 297 298 303 305 305 308 305 303 304 305 305 306 307 309 311 312 311 309 309 310 311 312 313 313 313 314 314 315 319 320 320 318 318 319 320 323 325 327 329 330 330 330 330 330 330 330 332 333 333 333 332 331 329 329 329 328 328 329 329 330 330 330 331 331 332 332 332 331 331 332 330
302 292 291 294 296 298 300 302 302 300 300 298 296 296 294 297 295 301 303 305 306 303 302 305 304 305 306 308 309 311 310 309 310 309 309 310 312 313 313 314 314 315 317 317 316 316 316 317 318 318 319 319 321 324 327 328 329 330 330 330 331 331 331 332 332 333 332 332 331 330 329 329 330 330 329 329 330 330 330 331 331 331 331 331 331 330
291 289 293 297 299 298 300 301 302 299 298 300 296 295 293 295 298 303 303 305 304 302 301 304 301 303 305 307 309 309 309 310 312 312 311 311 311 312 313 313 314 315 315 316 317 318 318 319 320 319 319 319 320 321 325 327 329 330 330 330 330 331 331 331 332 332 332 334 333 332 332 332 331 333 333 333 332 332 331 331 330 330 331 331 330 330
287 291 296 299 299 298 299 301 300 299 299 296 296 295 292 297 296 293 300 303 303 302 300 301 300 301 305 307 308 310 310 310 312 312 312 313 312 312 313 314 314 314 315 316 317 318 319 320 320 320 320 319 319 319 320 321 325 327 329 329 330 330 331 331 331 330 334 335 335 335 334 335 333 332 333 333 333 333 332 330 331 331 331 330 330 330
290 295 300 299 299 297 295 297 297 296 294 297 297 296 295 296 297 296 298 301 303 303 302 300 298 298 301 301 303 307 309 309 310 311 311 313 314 314 315 316 316 314 315 315 316 317 318 318 319 320 320 321 319 319 319 321 322 324 327 329 330 330 330 331 330 331 331 333 333 333 333 333 331 331 330 329 329 330 330 330 331 331 332 331 330 330
293 298 300 297 296 296 295 294 295 296 293 294 297 297 297 298 297 298 300 299 297 296 301 299 291 290 298 300 301 305 306 306 308 308 309 310 312 312 312 313 315 317 317 316 316 317 318 319 320 321 322 322 321 320 321 322 322 323 325 327 329 330 330 330 331 331 330 330 330 329 328 326 326 325 327 326 327 329 329 329 331 333 333 332 331 331
294 299 297 295 295 294 295 293 296 297 292 291 292 299 299 298 298 297 298 298 290 288 296 302 290 286 296 296 300 303 303 304 307 308 308 309 310 311 311 312 313 314 315 316 316 317 317 318 319 320 321 322 321 322 323 323 321 321 323 326 329 329 330 331 331 331 329 329 329 328 329 328 328 327 329 331 331 331 331 332 331 332 333 333 332 331
296 296 296 296 294 293 292 291 295 296 292 289 299 299 299 298 296 296 296 295 292 299 299 299 297 289 289 294 300 302 301 302 303 305 307 308 310 311 311 312 312 313 314 315 316 316 317 317 318 318 320 321 322 323 325 322 320 320 321 323 326 327 328 330 331 330 329 328 328 328 328 328 328 328 328 331 331 333 332 331 332 332 332 332 332 332
295 293 294 293 293 292 290 293 296 298 294 294 299 299 298 297 297 297 296 294 295 293 289 294 298 290 288 294 299 300 297 297 299 301 303 307 309 309 311 311 312 313 314 314 315 316 316 317 318 318 319 321 322 324 323 323 322 322 321 322 323 324 326 328 330 329 330 328 328 328 328 327 328 329 330 330 331 331 331 330 331 331 331 331 332 332
296 296 296 295 293 290 295 296 297 298 293 298 300 301 299 300 299 297 295 293 293 288 284 290 295 286 286 292 295 298 296 295 298 300 302 304 305 309 309 311 312 313 314 315 314 315 316 317 318 320 320 320 321 322 324 322 322 323 322 321 320 322 324 326 328 329 329 329 327 328 328 327 328 328 328 329 329 329 330 329 329 329 330 330 330 331
297 297 301 297 294 296 296 297 298 298 298 303 301 297 297 297 296 296 295 293 289 282 285 290 292 291 283 290 293 293 294 297 298 300 303 304 306 309 310 311 312 312 312 313 314 314 315 317 317 318 318 318 319 322 322 322 322 322 321 320 319 320 322 324 326 328 328 329 329 327 328 328 328 329 328 327 327 328 328 327 328 328 329 330 329 330
295 297 296 299 302 299 299 296 299 300 301 299 295 293 293 291 293 291 290 290 281 279 287 291 291 292 282 287 294 297 299 300 299 299 301 303 305 307 309 309 310 311 312 313 314 314 315 315 315 316 315 316 317 318 319 321 322 321 320 320 319 319 321 322 324 326 327 328 329 329 328 328 328 328 328 328 327 328 328 328 327 328 328 328 329 329
289 291 296 298 301 299 297 294 297 299 298 295 294 293 284 281 284 278 283 278 279 278 286 291 291 288 286 291 295 297 296 299 300 300 302 303 304 307 309 310 311 312 312 313 313 313 314 314 314 314 314 315 316 317 319 319 321 320 319 318 317 318 320 320 322 323 325 326 327 328 328 328 328 328 328 328 328 328 328 328 328 327 327 327 328 328
286 293 294 294 297 300 298 289 289 286 293 292 290 287 283 278 277 275 279 282 282 286 291 290 292 286 290 293 297 296 298 300 301 302 304 304 304 306 309 310 310 312 312 313 313 314 314 314 315 315 315 315 316 317 318 318 317 318 318 318 317 317 319 320 320 321 322 324 325 327 327 328 328 327 328 328 327 328 328 328 328 328 327 327 327 328
279 280 286 291 287 299 297 294 294 292 292 292 295 291 286 283 280 275 279 276 278 282 287 292 287 282 285 288 300 299 301 301 302 302 304 304 306 307 308 309 309 309 310 312 312 313 313 314 314 315 315 315 315 316 316 316 316 317 317 317 317 317 318 319 319 319 319 320 322 324 325 326 327 327 327 327 328 328 328 328 328 328 328 328 328 328
283 284 290 295 296 299 295 297 298 295 293 294 294 294 289 285 290 281 284 283 283 282 281 285 284 290 289 298 300 302 301 302 302 302 302 303 304 305 304 305 306 307 308 310 311 312 313 313 314 314 314 314 314 314 314 315 316 317 317 317 317 317 317 318 317 317 317 318 319 321 321 323 324 325 326 326 327 327 327 328 328 328 328 328 328 329
285 281 292 293 297 297 296 298 297 298 282 290 292 285 288 296 292 286 286 284 287 284 280 289 288 291 296 297 298 300 299 300 302 302 302 303 303 304 304 305 305 306 307 308 309 311 312 313 314 314 313 312 311 312 313 314 315 315 316 316 315 315 316 316 316 317 317 317 317 318 319 319 320 322 323 323 324 325 327 327 327 327 328 329 329 329
283 284 291 291 289 296 300 299 298 298 297 294 286 290 297 295 294 286 279 283 282 278 280 286 283 287 287 283 296 296 297 299 300 301 301 302 303 303 304 305 306 306 307 308 309 311 312 312 312 312 311 310 309 310 312 312 314 315 315 315 314 314 314 315 316 316 316 316 316 316 316 317 318 318 319 321 322 323 324 326 326 327 327 327 328 329
290 281 285 290 292 294 299 298 295 298 300 294 291 300 289 281 281 286 284 276 276 276 278 283 285 286 288 288 293 292 294 296 299 301 302 301 301 302 303 305 306 307 308 308 308 308 309 309 309 310 309 310 310 310 310 312 312 313 312 312 313 313 315 315 316 315 315 315 315 316 316 316 316 317 318 318 320 321 322 323 324 325 326 327 328 327
291 282 284 289 291 294 294 293 283 288 295 295 297 294 294 290 287 283 283 284 284 277 278 278 283 281 291 291 294 294 296 297 298 299 300 302 303 303 304 305 306 307 307 308 308 309 308 308 308 308 309 309 309 310 311 311 311 311 311 311 311 312 311 311 312 313 313 315 314 315 315 315 315 316 316 317 318 318 319 321 322 323 324 325 327 327
286 289 280 286 288 291 283 288 286 289 286 288 289 288 290 288 292 291 289 285 282 279 280 278 278 282 290 294 295 295 296 297 299 299 300 302 303 304 305 305 306 307 307 308 307 306 306 307 309 309 308 309 309 309 308 310 310 311 312 311 311 310 311 312 314 313 313 314 313 313 313 314 314 315 315 316 317 317 318 319 320 322 323 324 325 326
283 285 281 285 282 282 285 293 292 292 292 290 289 287 289 286 284 280 278 288 286 282 279 279 277 286 292 296 296 296 297 298 300 299 300 303 304 304 305 305 305 306 305 305 304 306 307 307 307 307 308 307 305 307 307 309 309 309 310 311 311 311 311 312 313 313 313 313 313 312 312 312 313 314 315 315 315 316 317 318 319 321 322 322 323 325
288 287 283 282 282 284 288 292 289 292 295 294 293 289 292 290 289 283 276 281 285 285 286 284 280 283 295 296 296 296 297 297 299 300 299 302 304 304 304 304 304 303 303 304 304 304 305 306 306 307 305 306 307 308 308 308 308 309 310 310 310 310 311 312 312 312 311 310 310 310 311 311 312 313 313 313 314 315 315 317 318 319 319 321 322 323
291 283 280 281 285 288 290 290 291 291 292 290 292 293 291 287 289 286 285 286 283 284 282 282 279 283 295 296 296 296 296 296 298 298 300 300 301 302 303 303 300 300 301 301 302 302 303 303 303 302 304 306 307 308 308 308 308 308 309 309 309 309 310 310 311 310 310 309 309 309 309 309 310 311 311 312 313 314 315 316 316 317 318 319 320 321
283 283 282 278 278 280 283 286 286 287 289 287 288 291 292 292 291 291 290 290 282 283 283 281 275 282 292 296 296 296 296 295 296 297 298 299 300 302 302 301 300 301 301 301 301 302 302 301 301 304 305 306 306 306 307 307 308 308 309 309 308 308 309 309 309 308 308 307 306 306 306 306 307 308 309 310 311 312 314 314 315 316 316 318 318 320
286 284 282 275 273 271 271 273 275 279 283 288 289 290 292 290 289 287 282 284 279 283 284 280 280 287 292 295 294 296 296 296 298 299 298 301 303 302 302 301 301 301 302 302 303 302 302 303 304 303 303 304 304 305 306 308 307 307 307 307 307 307 308 308 308 307 305 304 303 304 304 305 306 306 306 307 308 309 311 312 313 313 315 315 316 317
284 287 285 282 279 277 280 284 289 289 287 284 286 289 289 291 291 290 287 284 280 283 282 284 285 286 288 290 292 294 295 295 296 298 297 297 298 299 300 301 302 302 302 302 302 304 303 301 301 302 304 304 305 305 306 306 306 306 307 307 307 307 307 307 306 305 303 302 302 302 302 303 304 305 305 305 306 307 308 308 308 309 310 312 314 315
284 281 284 285 284 285 286 287 289 288 285 286 286 286 289 289 290 288 284 282 288 284 279 286 288 285 286 290 292 293 294 296 297 297 298 298 299 300 300 300 297 299 300 301 301 301 301 302 303 303 304 304 304 305 304 304 305 306 306 307 307 307 306 306 304 303 302 302 302 302 303 303 304 303 302 302 303 303 303 304 305 306 307 308 309 311
282 279 284 284 284 286 287 287 289 288 287 287 288 288 287 289 288 285 286 288 288 283 280 287 288 286 288 291 292 293 295 295 296 297 299 299 299 300 298 298 298 299 301 301 301 301 301 302 303 303 304 305 305 305 305 305 305 305 305 305 305 304 304 304 302 301 301 301 301 302 303 303 301 300 300 299 300 300 301 302 303 303 303 304 305 308
285 281 283 284 283 285 286 287 288 286 286 286 287 288 289 288 288 288 288 289 289 287 288 288 289 288 291 292 294 295 297 297 298 299 299 298 298 298 298 299 299 300 301 301 302 302 303 303 304 305 305 305 305 305 304 305 305 305 305 305 305 304 304 302 301 300 300 300 301 302 301 300 298 298 297 297 298 299 299 299 299 299 300 301 303 304
283 279 284 283 281 281 285 287 286 286 285 284 286 288 289 288 288 288 287 288 289 288 290 289 289 289 294 296 296 298 298 299 298 297 297 298 297 297 297 298 299 299 301 301 301 302 304 305 305 305 305 305 305 305 305 305 304 305 304 304 303 303 303 301 300 299 299 300 301 300 299 298 298 297 295 296 296 295 295 296 296 296 297 298 298 298
284 281 285 282 278 278 283 283 284 285 284 283 283 285 287 287 285 286 286 289 287 285 288 288 286 287 293 296 297 297 297 297 296 296 297 297 297 296 296 297 298 299 299 300 301 302 303 304 304 304 305 305 306 306 305 304 303 303 302 303 303 302 300 298 298 298 298 299 299 298 297 297 296 295 296 296 296 297 296 295 295 296 296 297 298 299
282 282 281 280 276 277 282 284 283 283 281 278 279 284 286 288 289 289 289 290 290 290 287 284 285 292 294 296 295 295 296 296 296 296 296 297 298 298 298 298 298 299 300 301 301 302 303 304 304 305 305 306 306 305 305 304 301 301 302 301 301 299 297 297 297 297 297 297 297 296 295 294 293 294 295 296 296 295 294 294 295 296 297 297 298 298
284 283 281 283 276 277 282 283 284 279 272 273 286 289 287 285 287 286 286 288 291 292 290 292 292 294 295 295 294 294 295 295 296 298 299 298 298 298 298 298 298 299 300 301 302 302 303 304 304 305 305 305 305 304 303 300 299 299 298 297 296 295 296 296 296 296 296 295 294 294 293 293 293 293 294 294 294 294 293 294 295 296 296 296 296 297
283 282 281 283 278 276 281 280 276 271 273 286 290 291 290 289 289 288 289 290 290 292 293 292 293 294 295 296 296 296 297 298 299 298 298 299 299 298 298 298 298 299 299 301 301 302 302 303 303 304 304 304 302 302 299 298 296 296 295 295 294 295 294 295 294 295 294 293 293 293 293 293 293 293 294 294 294 293 293 293 293 294 295 296 296 297
282 282 282 280 281 281 278 276 269 271 281 287 289 290 292 291 290 289 287 290 291 292 292 291 292 294 295 295 296 297 297 298 298 298 298 299 299 298 298 298 299 300 300 301 301 301 302 302 302 303 303 303 299 298 296 296 294 293 294 293 293 293 293 293 293 293 292 292 293 292 292 291 291 292 293 293 293 293 292 292 292 292 294 293 294 295
285 284 282 278 282 274 277 277 276 283 281 283 284 287 289 286 286 285 281 285 291 292 292 292 293 294 295 295 296 297 297 296 294 295 298 298 299 300 299 300 301 302 301 302 302 302 303 303 302 302 300 297 296 295 295 293 292 292 292 293 293 292 292 292 292 292 291 291 291 291 291 291 291 291 292 292 292 293 292 290 291 291 291 292 294 293
287 282 283 278 278 281 276 274 276 275 272 279 287 292 293 293 292 292 288 285 292 293 294 293 292 293 294 295 295 296 296 292 290 292 297 299 300 301 301 302 302 302 302 302 302 301 299 298 297 295 295 295 294 293 291 291 291 292 292 292 291 291 291 291 291 290 290 290 290 290 290 290 290 290 290 291 291 289 289 288 289 290 290 291 293 294
285 286 284 280 278 279 276 273 273 272 276 285 287 290 293 294 293 293 287 281 291 293 294 294 292 293 294 293 294 295 292 287 289 293 297 299 300 300 300 300 300 300 300 300 299 298 297 295 294 293 291 291 293 292 290 290 290 291 292 291 290 290 291 291 290 290 289 289 289 289 290 290 290 290 290 290 290 288 287 287 287 287 288 289 290 290
281 282 282 277 277 277 276 274 272 278 278 286 289 291 293 294 294 289 276 278 290 293 294 294 293 293 294 295 295 293 291 287 289 294 297 298 299 300 299 298 298 298 295 294 293 295 293 291 290 290 291 292 292 290 289 289 290 290 291 289 290 290 290 289 289 289 289 289 289 290 289 289 289 289 289 289 289 288 287 286 287 287 287 287 288 288
278 279 280 276 278 278 277 276 278 280 286 289 290 290 292 294 290 279 274 284 291 293 294 295 294 295 295 294 295 292 293 295 297 296 292 293 294 294 294 295 296 296 296 294 292 288 291 291 292 292 291 291 290 289 289 289 290 290 289 289 290 289 289 288 289 289 289 289 289 289 289 289 289 288 289 289 288 287 287 287 287 287 287 287 288 288
278 279 280 280 277 276 277 275 276 280 287 291 291 291 293 288 278 277 287 293 293 293 294 295 294 295 295 295 295 295 296 298 293 291 293 294 297 295 295 293 292 291 290 290 288 290 290 289 289 288 288 288 288 288 289 289 289 289 288 289 288 288 288 289 289 289 289 289 289 289 289 289 288 288 289 287 288 288 288 288 288 287 288 289 289 288
279 277 276 277 280 280 279 276 275 271 284 292 289 287 292 284 284 291 292 291 293 292 293 293 294 295 295 294 295 296 296 296 292 293 293 295 294 294 294 293 294 294 293 291 289 288 290 289 288 288 288 287 287 288 288 288 288 288 288 288 287 288 289 289 289 289 289 289 288 288 288 288 287 287 288 287 288 288 288 289 288 288 289 289 289 288
286 278 278 280 283 276 276 274 275 283 288 290 289 284 288 291 292 292 292 291 289 291 292 293 294 295 295 294 294 294 295 295 292 293 293 293 294 294 294 293 292 292 290 290 291 289 289 289 288 287 286 286 286 287 287 288 287 287 287 287 288 288 288 289 289 289 288 286 287 287 286 286 287 287 287 287 287 288 287 288 288 289 289 290 289 289
285 282 284 280 285 281 279 282 287 286 288 291 292 292 293 294 293 291 293 293 292 290 291 292 293 293 293 293 293 293 292 293 292 293 292 292 292 292 292 292 291 291 290 288 288 287 288 288 286 285 284 284 284 285 286 287 286 285 285 286 287 288 288 288 287 286 286 286 286 286 286 286 286 286 287 287 287 287 287 287 288 288 288 288 289 289
287 287 287 285 284 288 289 290 291 288 286 288 291 291 292 294 294 289 290 291 292 292 291 290 292 291 291 293 292 291 292 292 292 291 292 293 292 292 292 291 289 288 289 288 286 285 287 286 285 284 282 282 282 283 284 284 285 284 284 286 287 287 287 286 285 285 285 285 285 285 286 285 286 286 286 286 287 287 287 287 287 288 287 288 288 288
286 286 285 283 285 283 279 289 288 288 288 287 289 291 289 291 293 291 289 289 291 290 289 290 291 292 292 291 292 290 290 290 289 288 288 289 291 291 291 291 290 287 287 287 286 284 285 285 284 283 282 280 281 281 282 282 282 283 284 284 285 286 285 285 285 284 285 284 285 285 285 285 286 286 286 286 287 287 286 287 287 286 286 286 286 286
281 288 284 285 284 282 283 288 290 291 291 289 289 289 289 289 289 290 289 288 287 289 289 289 289 290 290 290 293 292 290 291 291 289 290 290 289 288 288 288 287 286 286 287 285 284 285 285 284 282 281 280 280 280 280 280 280 280 280 282 282 284 285 284 284 284 284 284 285 285 285 284 284 285 285 285 285 286 285 285 285 284 284 284 284 284
285 285 281 284 283 285 287 288 288 287 288 287 287 288 289 288 288 287 286 286 285 286 286 286 288 288 289 292 292 292 290 290 293 291 290 290 289 288 287 288 287 286 284 283 283 283 285 284 283 282 281 280 280 280 278 277 278 277 278 279 281 283 284 283 283 283 283 284 284 284 284 284 284 284 285 284 284 284 284 284 284 284 283 284 284 284
285 281 286 284 281 281 282 285 287 282 283 288 286 287 288 288 287 287 286 285 285 286 287 287 287 288 289 290 291 292 292 291 291 291 291 290 290 288 287 286 285 284 283 283 282 282 282 282 281 280 278 278 277 276 276 275 275 275 276 278 279 281 283 282 282 283 282 283 283 283 283 283 283 283 283 284 284 284 283 284 284 284 283 282 283 283
284 285 285 282 282 282 287 288 289 289 289 289 290 289 289 288 287 287 287 288 287 287 287 288 287 287 287 287 289 292 293 292 290 290 290 289 289 288 287 286 284 284 283 281 280 280 281 281 279 278 276 276 274 273 273 273 273 273 274 275 277 279 282 283 283 282 282 282 281 281 282 282 282 282 282 282 283 283 283 283 283 283 283 282 282 282
Wind_Speed
10 12 14 17 17 20 20 22 18 11 2 11 9 8 11 12 11 8 11 6 8 8 15 16 16 15 17 19 19 17 15 13 12 12 11 12 12 12 11 11 10 11 12 9 4 3 7 8 7 6 5 6 8 10 10 11 12 13 12 11 13 10 11 10 10 10 11 12 12 12 13 13 11 11 12 12 12 12 13 13 14 14 14 15 15 15
11 11 15 20 21 19 19 17 18 16 5 6 10 12 12 13 12 12 10 7 6 9 11 14 16 19 17 17 19 17 16 20 15 12 14 16 16 13 13 12 11 10 7 7 8 9 7 7 8 6 6 7 9 10 10 12 12 12 12 13 11 9 10 12 12 11 11 12 11 10 11 11 11 11 11 12 12 13 12 14 14 14 15 15 15 15
13 17 17 22 18 15 16 17 18 20 15 8 9 10 11 13 11 3 6 6 5 5 12 10 14 17 18 18 17 17 18 15 15 15 14 15 17 15 13 11 11 9 11 11 11 10 9 10 9 7 7 8 11 10 9 11 11 11 11 12 11 10 10 11 12 11 12 11 12 11 9 9 9 10 10 11 11 12 13 14 15 16 16 16 16 16
14 16 21 15 14 14 13 14 17 17 17 14 10 11 14 9 12 10 9 6 6 8 4 5 13 14 15 17 19 19 18 16 16 17 17 15 17 18 16 14 13 15 13 14 14 14 12 9 9 8 8 9 7 7 9 10 11 9 10 10 11 12 12 10 12 13 12 11 11 11 9 8 8 7 8 11 12 12 13 15 15 16 16 18 16 16
14 11 15 13 12 15 14 11 11 14 14 17 17 13 11 11 12 10 5 8 5 9 3 5 11 14 15 16 15 15 17 17 17 18 19 17 16 16 15 14 14 15 14 14 16 14 13 12 10 9 9 6 7 9 9 9 9 8 11 12 12 12 12 12 12 13 11 9 9 9 10 8 9 11 11 11 12 13 13 14 15 16 16 16 16 16
17 9 11 15 17 15 13 13 17 16 15 17 20 19 16 13 11 8 6 10 7 10 11 7 10 16 15 20 19 13 12 18 19 19 20 18 16 15 16 16 14 12 12 14 15 15 14 13 12 10 9 9 8 10 10 10 9 9 10 11 12 11 10 11 13 12 10 10 9 9 9 10 12 12 12 13 14 11 13 14 13 13 14 15 15 16
13 11 13 15 15 15 17 16 17 19 17 17 17 19 19 16 12 12 9 9 9 10 7 13 12 13 6 13 18 16 17 22 18 18 21 19 17 15 15 14 13 13 12 13 13 13 13 13 12 13 11 10 11 11 9 6 8 11 10 10 11 10 9 9 10 11 10 10 10 13 12 12 11 11 10 12 10 9 10 10 12 12 13 15 15 15
6 13 13 13 15 17 17 18 17 19 14 14 3 13 15 17 17 14 13 13 9 0 5 4 11 14 16 14 13 16 18 20 19 20 18 16 18 15 14 13 13 12 13 12 14 16 15 15 14 15 15 12 12 11 6 6 8 11 11 10 10 9 9 7 8 10 11 11 11 12 13 12 12 12 13 12 10 9 9 10 11 10 11 13 14 14
20 17 18 17 16 15 17 16 14 19 15 5 7 8 16 18 17 12 11 12 13 9 12 8 10 12 17 14 12 15 20 21 20 21 18 14 14 15 13 13 14 15 16 16 14 15 15 15 15 14 14 15 13 8 7 8 8 7 8 9 8 9 9 9 10 11 12 12 11 11 11 11 11 13 12 11 9 8 9 11 10 11 11 11 13 14
8 13 19 18 14 14 10 14 14 17 17 10 6 7 9 12 12 14 11 13 9 7 15 13 13 12 19 13 7 16 19 19 19 20 20 17 15 11 11 12 14 14 13 14 16 15 16 15 15 14 14 13 11 9 9 8 7 7 7 8 8 9 8 8 10 11 12 13 12 11 12 14 12 11 11 11 10 9 9 10 11 11 11 11 11 12
1 5 1 10 14 12 14 16 16 18 14 10 8 7 3 8 10 11 12 9 5 15 16 19 19 16 15 16 12 13 15 14 9 12 15 15 13 9 9 10 11 11 12 12 14 15 15 14 14 12 11 12 11 8 8 8 7 6 6 6 8 9 8 9 10 11 12 12 12 12 13 15 14 14 12 10 11 10 10 11 11 11 11 10 11 11
8 1 7 5 8 10 11 12 13 14 11 13 6 5 7 2 4 6 7 8 12 15 15 22 20 20 17 17 7 14 5 15 14 14 13 14 15 11 10 11 12 13 12 11 11 11 12 12 11 9 11 12 13 10 8 8 6 5 5 6 8 8 9 9 9 10 11 11 12 13 14 14 14 14 11 12 14 12 12 13 12 11 10 11 11 11
16 13 3 3 2 15 13 13 7 9 12 14 12 11 13 8 7 10 8 13 15 15 11 17 19 15 26 24 2 5 4 8 12 11 13 15 14 14 14 13 11 10 10 9 9 10 10 10 9 10 12 11 12 11 11 8 5 5 6 8 8 10 9 9 9 10 12 11 12 12 13 14 13 13 14 13 13 12 12 11 11 11 11 10 10 11
8 13 12 3 3 10 16 16 9 11 14 17 15 14 14 13 12 11 13 6 10 13 5 6 19 17 12 18 26 27 15 3 5 4 6 10 13 12 11 10 11 10 10 9 9 8 8 9 9 10 10 10 9 10 8 7 6 6 6 7 8 10 10 10 9 9 10 12 12 12 12 12 11 13 13 13 13 13 12 11 12 12 12 11 13 12
7 9 10 9 6 9 17 17 16 8 15 18 13 15 13 10 9 13 11 16 17 10 7 11 12 7 11 14 8 11 20 21 19 13 9 10 10 8 7 7 8 8 9 8 9 10 10 10 11 9 8 7 7 7 6 6 6 6 6 6 8 9 10 9 8 7 10 10 11 11 11 12 11 12 12 13 12 13 13 13 13 13 12 12 12 11
17 9 10 21 10 17 16 16 15 13 11 13 14 12 12 17 8 13 8 10 11 9 1 9 10 5 14 10 3 5 3 15 17 18 17 15 13 12 10 10 8 8 10 9 9 10 11 11 10 8 7 5 5 5 5 6 5 5 6 7 8 9 9 7 8 9 9 10 9 10 12 13 12 11 11 11 11 13 13 14 13 13 12 12 12 11
3 12 11 14 15 13 19 17 17 17 13 11 9 14 14 5 15 9 4 2 2 8 16 7 12 14 10 16 14 10 7 8 13 12 11 13 14 14 14 12 11 10 9 9 9 9 11 10 8 6 5 4 4 5 6 7 7 8 7 6 8 8 8 9 8 8 7 7 8 9 10 10 11 12 13 13 15 15 14 13 13 13 13 13 12 12
6 5 5 14 18 14 15 16 13 20 7 8 16 13 5 6 6 3 10 5 9 13 9 13 18 14 11 13 10 21 13 11 11 9 9 11 9 12 11 9 11 13 13 12 11 10 9 7 7 4 3 4 4 6 7 8 8 7 7 8 8 8 9 9 6 6 5 6 7 8 8 10 11 11 13 14 15 14 13 13 13 13 13 14 13 11
7 10 3 8 18 14 7 8 7 9 11 12 7 11 13 7 9 8 3 16 15 14 11 15 19 18 16 14 3 5 17 15 13 12 11 10 8 9 10 12 12 10 7 7 9 9 8 7 7 6 5 5 6 7 8 8 7 6 7 8 8 9 7 5 3 4 4 5 5 5 7 8 9 10 11 12 13 13 14 15 15 15 14 13 13 12
6 12 5 3 8 8 10 12 14 12 10 2 0 10 4 4 9 12 12 4 9 16 11 14 14 17 12 14 17 13 6 7 9 12 13 12 10 9 8 9 10 9 8 9 9 6 5 6 8 8 6 5 6 6 6 7 5 7 7 7 7 5 4 5 6 4 5 5 5 6 7 8 8 9 10 11 11 12 14 15 15 15 15 15 12 12
7 5 13 3 2 6 9 10 17 17 18 10 10 12 7 6 1 9 9 13 11 11 14 12 13 12 13 12 15 15 15 10 9 9 11 12 10 9 9 9 8 8 8 7 3 4 6 8 8 5 4 4 4 4 4 5 7 6 4 5 4 4 4 5 5 4 5 4 5 6 8 8 7 9 9 10 11 12 14 14 14 14 13 12 13 12
1 5 11 5 5 7 4 14 23 24 20 15 16 18 17 16 13 12 13 5 11 12 13 11 17 6 1 2 10 13 13 14 11 13 12 13 14 10 8 8 7 7 6 4 5 7 7 6 4 4 3 3 4 5 6 4 3 5 5 3 3 3 4 5 5 4 5 4 5 6 7 7 7 8 8 9 10 12 12 12 13 13 12 14 14 12
10 1 4 10 6 12 11 3 6 6 10 16 16 15 16 15 13 12 14 13 7 13 7 12 12 12 4 3 4 9 9 12 15 15 14 9 9 9 7 6 5 5 5 6 6 5 5 4 4 3 4 4 5 4 3 3 3 4 4 3 3 4 5 4 5 4 4 5 6 7 7 7 7 7 8 9 10 11 12 11 12 11 12 13 13 12
8 6 5 4 2 5 3 2 3 3 4 10 13 10 13 17 16 15 13 12 14 10 12 11 16 10 1 0 2 1 2 3 4 1 7 5 6 7 6 4 5 5 5 4 4 3 4 4 3 3 5 4 4 3 4 4 4 4 5 5 4 6 6 4 4 4 4 5 7 8 7 7 7 8 8 9 9 10 11 10 10 10 12 13 12 13
7 7 8 6 4 2 6 5 4 1 4 7 10 16 18 17 20 18 13 1 10 8 10 9 17 9 12 7 3 3 2 2 6 5 6 9 7 6 5 2 3 3 2 3 4 5 3 3 5 4 3 3 3 4 5 5 5 5 5 4 4 4 5 5 4 4 5 6 8 7 7 8 7 7 8 9 8 10 10 9 9 9 11 11 12 12
13 9 12 12 11 11 10 11 11 8 12 10 11 18 21 23 23 17 16 12 14 9 16 13 12 11 8 3 7 8 6 5 7 9 5 5 4 5 3 2 3 3 4 4 4 3 6 4 1 2 4 4 5 6 6 5 4 4 4 5 4 5 5 5 4 5 5 5 6 7 7 8 7 7 8 9 9 10 9 8 8 9 9 10 12 12
4 6 13 13 16 16 12 8 8 10 8 15 16 15 19 20 22 21 14 16 20 11 16 17 14 14 18 19 15 11 9 14 15 9 9 8 8 5 3 3 4 4 4 6 6 5 2 2 6 6 6 6 7 5 4 4 4 5 5 6 5 5 5 5 4 4 5 6 6 7 8 8 7 6 8 7 8 8 8 8 8 8 9 9 10 11
3 6 14 18 22 19 17 15 10 9 10 13 18 23 22 20 21 24 21 20 15 14 21 11 19 18 21 22 21 18 16 15 15 13 10 9 8 8 7 6 5 5 7 6 5 5 6 7 6 7 8 8 6 5 4 4 6 6 6 7 6 5 4 4 4 5 5 5 6 7 8 6 6 6 7 7 7 7 8 8 7 8 8 8 9 10
3 7 9 12 20 21 23 20 13 11 13 11 14 16 19 22 20 22 20 21 20 20 19 14 22 23 22 24 23 20 17 18 18 14 8 9 9 6 4 6 8 9 9 8 7 6 7 8 8 9 8 8 7 6 7 7 7 7 7 6 5 5 6 4 4 5 6 6 6 7 6 5 5 5 6 6 7 7 7 7 7 7 6 6 7 7
3 9 10 10 15 20 20 17 15 14 11 17 18 19 19 16 19 21 18 21 24 21 19 18 18 23 18 21 23 22 18 16 15 5 7 10 10 8 8 8 9 10 10 10 7 7 8 9 9 9 9 8 8 8 8 7 7 7 6 5 5 5 5 3 5 5 6 6 7 6 5 5 4 4 5 6 6 6 6 6 6 6 6 6 6 7
6 8 10 10 11 15 19 22 18 19 14 16 17 19 21 21 20 22 20 22 22 23 18 20 21 19 15 19 23 20 15 11 9 14 12 11 9 10 10 12 12 12 12 9 9 9 10 10 10 9 9 9 10 10 8 8 7 5 3 4 4 5 4 3 5 5 5 7 6 5 5 5 5 3 5 6 7 7 7 8 7 7 7 8 8 8
10 8 8 8 10 12 12 17 20 18 17 18 17 19 18 17 17 13 15 15 16 17 20 21 20 19 15 20 21 22 21 15 14 17 14 12 13 14 14 15 15 12 11 11 12 12 13 11 10 10 10 11 9 6 5 5 5 3 5 5 4 3 2 3 5 6 6 6 5 5 5 4 4 4 5 4 5 6 7 7 7 6 6 6 7 7
5 4 7 8 12 13 16 14 21 20 17 21 21 15 14 15 14 15 19 20 24 21 18 19 19 18 23 20 19 21 21 20 18 17 15 17 15 13 13 15 16 14 11 13 15 14 11 10 9 9 10 9 8 7 3 2 2 5 5 4 4 2 4 4 5 5 5 5 4 5 4 4 4 5 5 4 4 5 6 7 7 7 6 6 5 5
8 9 10 7 7 7 12 11 12 14 20 13 8 17 21 19 19 20 19 22 25 23 18 18 20 20 20 20 21 22 23 21 19 18 13 9 10 12 15 16 16 15 14 13 13 12 12 10 8 9 11 10 7 5 2 1 3 2 1 3 3 4 4 4 4 4 4 3 4 4 4 4 4 4 4 4 4 5 6 6 7 7 6 5 4 4
9 9 12 8 8 12 10 5 10 18 12 6 14 20 24 27 24 24 21 24 23 21 18 18 19 19 23 22 23 22 21 21 15 10 9 11 15 14 15 14 14 14 15 13 12 12 12 11 11 11 10 8 6 2 0 1 2 1 2 3 3 3 4 4 4 4 3 3 3 3 3 3 4 5 5 4 4 6 6 6 6 6 5 4 4 4
14 14 11 9 6 9 10 8 11 7 3 5 11 17 21 23 23 19 19 17 16 19 21 24 27 27 26 24 21 17 19 16 13 7 10 11 11 13 14 14 14 14 14 12 13 12 12 12 13 12 10 4 1 1 1 2 1 2 3 3 3 3 3 3 3 3 2 3 2 3 3 3 4 4 4 4 3 4 6 5 5 6 5 3 4 3
17 12 10 12 8 11 8 13 14 4 8 6 5 8 10 14 17 18 17 20 25 24 25 24 25 24 22 22 21 21 8 5 9 12 11 14 14 16 17 17 13 8 11 12 12 13 13 11 10 8 5 1 1 1 2 2 2 2 2 2 2 2 2 2 2 1 1 2 2 3 3 3 3 4 4 3 3 3 5 5 5 4 4 4 4 3
15 16 11 13 8 11 13 15 10 9 11 8 14 12 17 20 22 22 20 19 19 24 21 20 22 24 24 24 23 17 6 6 11 15 16 15 13 12 14 9 3 7 11 11 12 10 5 4 2 1 2 2 2 2 2 2 2 2 1 1 1 1 1 1 0 0 1 2 2 3 3 3 3 4 4 3 3 4 4 4 4 4 5 4 5 3
15 15 15 13 10 8 11 12 10 13 8 8 13 18 17 18 21 16 12 15 10 16 21 21 23 25 27 24 23 9 7 8 13 16 21 8 11 12 12 11 12 11 12 9 8 7 6 4 3 3 2 2 3 1 1 1 1 1 1 1 1 1 1 1 1 1 1 2 2 2 2 2 3 3 3 3 3 4 4 4 3 3 4 4 4 4
16 14 15 14 14 15 14 13 13 5 7 10 13 14 15 11 8 9 15 11 16 18 18 23 27 27 25 25 12 9 11 14 15 17 4 8 9 11 13 12 13 12 4 3 2 4 6 6 5 3 3 3 3 1 1 1 1 1 1 2 1 1 1 1 1 1 1 1 1 1 2 1 2 2 3 3 3 3 3 2 2 3 3 3 3 4
10 11 13 14 13 19 21 13 9 8 7 15 17 4 8 10 11 13 14 5 17 22 19 18 22 23 22 18 11 8 15 19 15 2 6 4 6 4 2 1 2 3 6 6 6 6 5 4 4 4 4 2 2 1 2 2 2 3 2 2 2 2 1 1 0 0 1 1 2 2 3 3 3 3 3 2 2 1 2 2 2 2 2 2 2 2
8 8 8 12 16 15 14 15 12 9 9 10 5 12 14 12 11 9 16 22 17 14 14 12 12 14 12 13 10 13 16 21 5 6 6 7 8 8 6 5 4 4 5 5 6 6 5 5 4 4 3 2 2 2 2 3 4 3 3 3 2 2 1 1 1 1 2 2 3 3 4 4 4 3 3 2 1 2 2 2 2 1 2 2 3 4
9 7 7 10 6 8 9 11 11 10 9 21 6 4 9 12 14 12 2 2 6 3 8 11 15 17 18 19 23 23 23 15 9 9 9 6 9 8 7 6 6 5 5 5 4 4 6 6 6 5 4 2 2 2 3 4 4 4 3 3 2 1 1 2 2 3 3 4 4 4 4 4 3 3 3 3 3 2 3 3 3 3 3 3 4 4
10 7 5 8 9 8 11 10 8 10 8 10 15 12 12 14 3 7 6 8 2 8 10 10 13 17 21 21 17 15 14 9 8 9 7 6 5 3 3 4 3 3 3 3 4 8 7 6 6 5 4 3 2 2 3 4 5 4 3 3 1 1 2 2 3 3 4 3 3 3 3 3 3 3 3 3 3 3 4 4 3 3 3 3 3 3
12 11 10 8 7 9 8 10 10 1 5 10 13 12 15 16 8 3 9 12 9 6 10 12 17 17 9 9 9 10 8 9 11 11 11 10 8 7 7 7 7 7 7 7 7 7 7 8 9 7 6 4 4 4 3 2 5 6 4 2 1 2 3 3 2 2 3 3 2 3 3 3 3 4 3 3 4 4 4 4 4 5 4 3 3 3
2 8 2 1 6 8 11 11 5 4 3 8 8 4 6 14 13 5 7 8 10 8 9 10 13 10 9 8 10 6 9 10 10 7 7 6 8 7 4 5 4 5 5 6 6 7 6 7 8 9 8 6 5 5 4 4 4 6 4 3 1 1 2 3 3 4 4 3 3 3 2 3 4 4 4 4 4 5 4 4 4 5 4 4 4 4
9 4 5 7 1 3 8 14 17 19 8 6 11 11 7 7 10 10 9 7 6 5 6 6 6 8 10 9 10 11 8 8 10 6 5 5 6 7 7 6 7 8 9 9 8 8 7 8 8 9 9 8 5 5 5 5 5 5 4 3 1 1 3 3 4 4 4 4 3 3 3 3 3 3 4 4 4 4 4 4 4 4 5 4 4 4
5 9 7 8 7 7 14 12 9 15 13 10 9 9 10 9 9 7 6 5 5 2 3 3 1 5 6 7 8 10 8 7 10 8 6 6 5 4 5 3 4 6 5 6 8 7 6 7 8 10 9 8 6 6 5 5 5 3 2 2 2 2 3 3 3 4 4 4 2 3 3 3 4 3 3 4 4 4 5 5 5 6 7 6 4 3
1 8 7 10 9 12 15 17 6 7 4 4 6 6 6 6 6 6 6 5 4 3 2 2 1 3 9 7 7 8 9 8 9 11 9 6 5 4 6 6 5 5 7 7 7 9 7 8 8 9 9 8 7 8 6 6 5 4 3 2 2 0 4 5 5 5 5 3 3 3 3 3 3 3 3 4 6 7 7 5 5 6 6 7 6 5
4 9 7 6 8 10 13 9 6 5 10 8 11 13 13 13 10 8 5 6 6 6 4 5 3 3 2 3 8 7 11 9 6 9 10 8 7 7 6 5 5 5 5 5 6 6 7 7 10 10 9 8 7 6 7 5 4 3 2 2 1 1 5 5 5 5 4 3 3 3 2 2 2 2 2 3 5 6 7 11 11 7 5 5 9 13
11 13 7 9 11 12 13 5 10 9 10 7 8 11 13 10 9 11 13 10 6 4 4 6 9 3 3 3 2 7 8 11 10 7 7 4 5 5 6 7 7 6 6 7 8 7 8 9 9 10 9 7 6 6 5 4 3 3 3 2 2 1 4 5 4 4 4 3 3 3 2 2 1 2 1 2 3 4 5 5 7 11 11 10 9 10
Wind_Direction
154 190 197 204 210 207 206 210 215 212 294 215 214 215 216 223 232 217 222 165 205 208 217 222 228 230 225 230 242 237 236 224 218 220 231 249 247 246 242 238 238 238 240 243 259 272 245 242 242 237 233 236 235 232 227 226 224 221 219 217 221 212 206 208 208 209 217 222 224 227 229 232 231 231 229 231 231 232 235 234 233 230 228 227 225 222
188 202 210 211 213 210 210 211 217 222 228 233 214 209 216 216 227 211 199 146 202 216 232 223 234 235 233 231 238 242 239 241 229 218 225 239 245 241 241 240 239 246 253 260 264 250 236 236 236 221 225 228 236 233 219 223 225 223 221 223 223 210 207 209 210 210 210 215 218 218 223 228 232 230 227 232 231 230 231 232 231 230 231 227 227 227
199 209 214 212 211 214 216 209 213 217 218 205 220 211 222 219 217 66 198 161 168 214 250 237 241 244 242 242 242 243 242 244 246 238 230 230 241 244 241 239 244 245 251 258 253 248 237 233 230 220 223 225 230 242 222 224 225 223 220 221 218 214 210 211 211 212 216 211 212 215 221 218 229 232 237 238 237 233 231 230 228 230 231 228 230 228
204 221 221 214 213 215 212 212 208 213 226 223 212 214 218 206 199 222 202 175 186 212 273 244 257 258 251 242 237 239 244 246 245 244 239 232 239 244 243 235 233 238 243 249 253 253 247 231 232 225 228 228 222 228 234 232 224 221 221 217 212 216 215 214 210 210 218 215 214 214 221 224 231 243 239 242 240 237 233 232 229 229 228 230 233 229
209 214 214 200 206 213 215 208 215 209 215 223 226 220 224 205 207 228 194 181 191 235 282 266 276 269 246 243 236 233 240 249 244 243 242 235 231 240 248 243 234 238 236 241 248 249 251 248 238 230 234 222 217 228 229 225 215 212 217 214 210 213 214 215 213 209 210 213 216 216 230 239 250 249 248 247 242 234 232 238 233 230 227 230 228 227
224 208 136 185 203 205 205 205 212 209 218 220 224 225 222 214 209 191 130 173 200 235 219 212 263 257 243 238 236 230 227 238 236 236 239 236 225 218 230 237 237 233 234 241 245 248 247 249 251 241 229 227 227 236 230 219 217 217 221 216 211 214 215 216 214 207 198 207 209 207 212 220 227 235 232 228 229 218 216 222 224 226 221 223 225 227
224 194 183 198 198 192 202 212 208 210 222 224 225 213 221 223 210 203 188 180 219 226 211 190 231 268 241 232 218 217 227 239 239 226 233 234 232 217 219 224 228 229 229 233 243 248 248 244 244 250 245 235 237 238 234 207 215 223 228 222 212 213 217 216 213 199 193 205 212 214 214 216 217 225 231 230 229 220 219 217 215 217 215 216 217 220
180 206 189 199 190 193 202 212 206 202 214 231 176 193 205 218 220 214 209 216 236 226 35 212 221 263 273 242 230 206 212 230 239 240 233 230 233 228 222 218 222 224 231 233 232 238 239 241 239 243 246 242 236 238 223 219 221 223 225 221 216 219 220 214 199 197 197 208 212 214 218 220 225 228 239 234 229 221 218 218 216 214 216 215 215 219
196 195 196 196 193 197 208 207 201 201 212 226 115 162 199 208 218 214 212 226 233 241 237 199 216 254 257 258 223 210 220 221 228 239 240 226 226 230 226 223 222 217 219 225 231 234 236 236 235 235 240 244 249 238 230 226 224 222 227 228 225 226 223 220 206 204 205 209 214 214 217 223 226 232 240 246 239 232 219 225 225 223 223 220 215 216
209 207 202 197 191 210 201 206 203 195 215 202 129 176 205 202 206 212 216 226 228 223 236 218 200 240 266 252 194 201 218 227 223 228 239 237 237 207 217 224 230 229 225 225 231 234 236 236 236 234 237 245 246 245 243 242 238 232 224 225 222 227 225 223 214 205 211 210 214 218 219 224 230 228 237 243 244 236 236 235 231 232 228 223 218 215
261 5 307 199 206 200 190 199 192 194 205 107 137 108 100 183 205 210 223 218 228 234 228 224 216 220 267 257 209 207 217 214 208 222 226 231 230 212 214 226 224 229 226 221 224 229 234 235 238 242 243 245 251 247 246 243 233 229 226 226 225 226 226 220 216 209 212 213 214 219 222 225 230 233 236 241 241 237 236 239 235 231 231 227 223 217
244 281 173 213 199 207 201 205 200 193 166 147 165 153 134 151 175 214 220 221 226 244 228 220 217 212 235 265 219 228 181 182 202 213 201 213 227 220 212 222 229 228 228 224 225 234 239 242 239 234 247 247 249 251 244 239 235 222 223 222 231 231 225 226 219 214 215 216 217 220 224 227 229 232 233 234 240 235 233 232 236 233 233 230 225 220
231 217 228 178 269 195 191 210 183 175 170 194 189 168 186 193 177 218 197 215 217 231 229 209 202 222 229 246 140 75 232 183 193 203 200 206 217 217 215 218 224 231 237 237 228 231 239 240 238 224 229 238 246 244 243 244 242 229 223 221 228 236 228 226 218 216 218 218 222 222 224 229 233 236 238 242 244 242 241 238 237 233 233 230 226 218
220 220 200 184 220 203 196 203 165 188 184 195 194 176 189 196 201 220 209 235 239 238 252 171 180 229 253 266 248 249 231 147 160 192 206 202 213 216 216 217 222 229 236 241 241 236 236 240 240 234 225 226 235 243 248 246 244 236 226 222 222 235 232 228 219 219 221 223 225 226 228 230 231 235 235 239 241 241 241 240 238 233 233 232 226 219
218 203 203 164 214 170 208 209 190 184 176 200 194 192 202 201 201 215 208 212 218 231 220 165 176 228 184 224 50 239 236 236 245 223 201 213 221 230 235 232 235 237 242 242 244 242 238 236 237 237 230 223 231 236 236 236 234 228 225 214 218 232 237 228 220 220 225 229 229 229 231 233 233 236 237 239 240 242 241 241 240 239 237 236 236 229
215 245 155 191 189 178 200 202 200 176 191 202 202 206 214 211 194 226 215 223 223 215 146 194 215 194 229 274 80 225 160 208 227 233 233 228 217 215 223 231 221 220 229 232 237 245 248 246 241 239 241 226 225 224 229 231 227 222 228 223 224 230 243 238 222 222 227 231 232 232 233 235 238 241 244 248 244 242 241 245 244 246 245 245 244 241
195 229 147 188 192 189 193 188 201 176 206 188 203 214 213 210 226 240 291 75 14 228 237 213 240 250 289 274 252 239 155 175 206 220 213 227 222 218 227 222 222 224 226 227 233 238 244 249 245 234 237 230 223 224 226 230 223 226 230 231 236 237 240 243 235 230 229 233 235 239 240 243 244 245 246 248 251 250 248 247 247 248 247 248 245 243
233 224 160 176 197 207 201 198 189 200 212 169 210 197 118 30 24 205 233 199 216 231 232 202 228 241 219 267 212 230 220 166 214 207 214 219 201 213 222 224 221 225 223 222 224 231 241 253 265 262 216 216 237 237 235 234 231 229 229 230 233 235 237 240 232 230 236 242 248 254 252 248 246 249 250 250 252 252 253 250 248 247 246 243 243 242
174 256 220 218 192 192 173 166 212 244 224 227 230 155 201 168 210 206 225 229 223 229 239 227 228 233 220 228 80 174 224 210 190 205 214 218 195 201 213 224 234 232 224 223 228 231 239 246 254 260 266 246 235 237 241 238 230 224 227 230 230 235 241 260 270 267 261 252 253 255 259 259 256 252 254 254 254 256 253 252 250 249 248 249 243 242
236 231 203 207 204 132 169 178 207 199 227 359 76 211 189 261 220 199 209 258 233 239 236 242 225 246 217 231 235 226 201 216 188 200 215 224 215 202 199 209 224 224 223 223 222 222 235 251 256 251 241 231 228 227 226 232 231 235 233 225 230 244 261 269 265 257 262 257 251 258 264 261 258 259 259 258 259 256 254 254 253 252 250 248 247 245
247 205 244 148 30 163 203 196 211 198 197 194 206 206 191 219 322 236 231 222 223 239 235 244 234 231 230 223 225 227 237 223 178 204 209 222 228 211 205 204 212 216 219 219 207 221 230 236 237 222 223 238 248 245 245 234 230 235 226 226 219 232 250 254 258 261 262 268 264 262 263 266 267 264 262 263 259 258 258 258 257 255 254 257 250 246
154 216 224 161 185 214 246 191 206 206 195 196 196 207 196 196 205 206 234 224 234 232 236 233 243 254 17 215 213 226 229 238 223 227 217 209 216 213 203 207 203 216 217 196 208 216 222 233 244 246 240 253 256 249 237 236 244 248 238 219 219 226 238 247 260 254 267 267 271 270 271 272 272 269 266 264 262 258 258 257 256 256 257 252 251 245
198 133 248 229 206 201 213 221 359 348 223 205 200 207 201 208 202 207 219 208 214 232 235 246 266 248 168 128 179 210 220 225 224 219 227 208 206 215 214 186 201 215 209 196 201 213 224 227 229 237 245 244 244 265 285 285 268 270 274 257 234 233 246 243 262 275 277 283 280 277 276 274 268 267 267 265 263 259 258 258 259 257 256 255 255 250
126 227 218 274 346 216 22 336 13 326 224 228 224 220 203 212 205 217 219 213 221 202 212 233 244 249 288 109 186 32 51 4 345 288 224 222 224 236 238 184 181 201 206 205 209 216 217 219 224 234 236 233 235 243 246 248 251 248 246 237 225 233 245 251 257 269 277 275 274 277 277 271 268 269 268 266 263 261 261 261 263 263 259 259 259 256
202 191 217 223 223 207 226 252 253 213 188 222 213 213 216 212 212 217 230 256 249 219 224 223 240 231 234 210 176 151 160 194 229 218 210 211 227 227 215 186 204 217 211 193 204 211 195 213 223 227 230 241 253 255 246 240 240 237 246 239 236 246 240 247 253 258 263 266 275 277 275 276 272 269 269 268 270 268 268 267 267 266 264 266 263 260
230 193 186 211 208 212 212 196 198 185 204 208 221 214 213 213 211 214 227 224 243 209 219 227 245 249 255 170 220 212 194 215 217 218 188 239 220 210 183 186 199 187 205 185 188 182 212 221 248 274 260 261 251 247 255 254 259 273 274 261 244 249 243 239 243 251 262 267 272 276 273 271 271 269 272 274 276 276 275 273 269 269 269 264 263 261
284 232 211 205 215 227 231 228 207 206 181 201 206 220 221 216 217 217 219 219 224 213 226 223 230 244 247 243 231 213 211 235 236 191 194 211 237 247 221 193 197 205 208 215 211 206 183 222 236 238 244 243 247 247 254 270 281 274 265 267 252 244 257 264 262 252 251 253 253 265 265 268 269 274 277 277 278 282 282 277 275 272 270 269 266 266
233 258 244 228 224 227 225 220 192 157 189 201 198 211 213 211 209 215 213 220 204 219 237 199 220 230 242 246 243 232 217 222 228 234 194 191 203 212 206 196 212 226 231 226 223 213 217 224 225 229 233 235 236 233 245 252 252 255 257 263 268 272 263 251 251 254 252 253 258 254 259 262 276 282 281 282 283 281 280 281 278 274 276 276 273 269
230 256 262 255 246 234 232 231 209 181 195 195 210 211 209 213 211 218 224 228 222 226 232 214 219 226 231 242 250 245 236 232 233 228 194 194 204 199 165 188 208 225 234 227 227 218 221 223 213 217 226 233 238 239 236 232 232 231 238 242 253 256 255 254 249 262 266 268 263 261 269 286 288 290 290 287 286 283 281 281 282 283 281 278 277 274
196 245 262 258 270 254 242 243 236 216 194 203 209 212 215 205 213 218 224 226 228 234 236 242 241 237 234 245 249 249 243 242 244 216 155 201 196 193 202 215 229 243 250 253 242 226 228 231 232 228 226 226 230 237 240 240 240 236 232 230 224 231 247 236 242 246 258 260 265 274 287 287 279 283 293 293 288 290 295 296 299 300 299 295 292 292
202 246 229 243 247 260 256 243 232 232 219 218 214 212 211 213 212 213 217 226 232 241 247 250 251 253 240 245 254 259 256 242 239 240 199 197 177 185 196 214 227 237 247 261 270 256 242 234 229 229 228 227 222 223 229 230 243 259 264 247 241 246 246 237 258 250 248 260 265 274 279 277 274 276 273 275 284 282 285 288 289 291 293 294 293 291
183 242 236 246 253 244 228 237 238 231 226 228 222 217 213 209 217 210 221 216 223 226 229 238 244 246 247 244 249 252 251 244 232 236 225 208 193 191 202 215 220 224 234 248 255 259 266 277 280 278 282 281 275 241 212 220 222 215 245 251 255 256 239 244 249 255 259 263 274 273 271 269 274 269 264 260 263 274 282 284 281 277 276 282 288 288
197 255 251 242 252 253 259 213 226 223 229 232 222 216 219 216 210 206 213 207 212 213 223 227 235 236 239 239 240 250 253 249 242 238 227 222 216 210 217 225 230 230 213 221 232 241 248 249 247 251 259 265 262 262 245 172 198 235 247 258 273 299 271 264 264 264 264 268 271 275 272 269 266 269 271 272 279 285 288 285 281 279 278 275 281 291
215 226 248 243 257 277 269 251 226 222 223 216 146 199 206 213 207 211 212 212 215 207 220 221 231 233 241 247 245 244 245 242 237 239 229 223 226 216 218 225 232 230 224 222 226 233 238 240 244 246 242 240 251 265 311 170 244 268 302 281 287 278 276 278 280 278 280 278 276 281 281 281 281 280 281 288 293 298 294 290 287 288 282 283 283 269
225 227 239 238 245 254 258 271 251 235 250 155 196 206 203 212 209 210 216 215 216 215 222 231 236 236 234 232 238 242 250 255 251 248 246 221 226 235 234 222 215 223 225 219 215 220 226 230 236 240 244 242 239 257 160 205 172 205 227 228 246 244 256 259 267 275 281 285 282 277 282 291 292 295 300 302 304 304 298 295 297 295 288 281 277 275
239 236 243 244 235 248 251 233 249 237 351 315 233 214 208 209 212 217 227 226 216 210 207 219 226 229 235 240 246 246 245 252 268 253 247 239 218 229 236 237 226 208 215 215 214 214 213 217 223 227 236 227 83 189 163 248 188 212 215 203 221 226 224 232 245 253 262 276 278 284 287 288 290 289 293 301 305 304 303 306 304 300 308 306 293 274
228 235 233 255 226 247 234 245 243 295 284 232 295 252 205 205 205 208 227 225 215 215 208 215 223 231 237 241 239 241 234 268 272 262 211 219 212 220 228 237 233 188 203 211 211 215 213 211 220 234 262 340 156 185 220 201 202 216 216 211 203 206 203 215 216 236 276 277 300 307 307 303 297 295 298 306 308 310 317 320 321 320 324 304 296 303
217 222 217 228 230 216 246 255 259 236 240 216 210 210 204 209 206 204 214 234 217 218 213 211 220 227 232 235 238 234 110 235 261 264 244 200 201 211 222 228 159 196 203 211 210 214 180 168 144 94 168 208 202 192 178 191 194 204 220 203 161 176 150 164 165 331 303 316 332 323 323 323 318 314 316 321 328 323 323 324 321 328 335 325 316 307
217 217 225 221 245 243 237 245 244 249 236 223 220 218 211 206 207 206 222 240 230 220 210 212 218 226 229 229 230 156 160 223 243 251 257 211 197 201 206 208 210 209 219 211 173 176 159 143 143 134 126 168 234 170 155 174 181 200 189 134 131 137 142 102 20 355 338 341 337 334 343 341 341 336 336 342 344 333 323 329 336 334 332 340 336 341
214 214 218 219 225 234 247 248 251 220 250 228 234 231 215 203 187 183 222 223 225 229 208 207 214 222 226 227 210 168 191 223 231 246 70 115 171 165 185 203 212 208 157 132 98 101 121 127 126 143 168 193 212 132 153 167 178 156 150 127 142 147 110 63 27 349 340 340 345 14 16 17 12 14 7 360 357 352 339 331 341 8 19 17 19 355
212 220 216 220 216 232 231 248 253 261 255 260 255 223 148 145 156 197 222 203 221 225 208 208 214 223 228 231 209 196 211 219 232 120 102 103 109 114 160 29 121 134 155 144 134 128 128 143 150 150 166 166 189 197 182 177 168 158 141 141 150 110 83 56 30 64 56 47 41 41 34 30 36 31 39 29 24 35 46 40 34 34 39 46 51 56
200 200 212 206 223 224 228 232 241 248 246 257 230 153 146 149 203 217 221 222 226 234 228 210 216 228 233 239 217 214 224 222 123 124 135 174 154 153 137 144 130 116 88 95 118 138 120 120 127 131 136 162 173 191 176 176 161 140 141 145 113 100 95 130 124 113 92 72 58 48 39 38 26 30 37 31 45 73 74 74 84 75 77 83 85 79
179 187 197 209 211 231 231 237 239 252 231 223 138 43 181 196 211 223 215 70 192 159 165 182 207 223 223 229 225 220 226 217 147 160 160 153 152 147 160 148 167 172 162 142 123 129 142 143 152 145 141 136 138 157 166 160 140 127 135 119 112 121 132 141 132 111 93 78 73 58 51 46 32 29 27 17 27 53 68 66 68 69 75 88 90 84
161 199 205 218 187 211 204 211 217 219 272 121 151 185 201 220 47 142 182 232 170 188 184 190 204 215 222 226 229 225 228 201 159 160 154 169 188 142 139 155 122 140 109 120 144 160 167 144 134 133 130 115 101 102 133 158 135 133 125 115 114 127 146 135 117 109 96 86 76 74 67 58 51 45 45 30 27 41 48 40 47 63 67 72 90 90
174 214 202 231 180 205 213 220 220 136 191 191 198 206 210 216 229 250 199 217 206 224 206 211 220 225 202 184 189 183 183 180 174 169 172 188 187 185 179 184 181 174 173 162 170 156 163 151 147 139 131 116 105 99 91 107 130 129 121 108 112 162 147 128 109 97 85 72 68 68 68 62 59 55 46 50 48 50 51 43 35 57 40 46 52 63
197 222 50 279 245 229 259 253 270 254 206 229 246 328 257 219 214 216 243 218 217 211 171 199 210 210 185 177 168 183 192 183 168 160 179 170 179 181 156 137 135 147 147 143 141 165 151 137 136 138 129 115 109 103 105 101 121 127 128 124 113 126 124 118 111 95 85 79 65 44 37 72 67 51 39 51 58 61 61 57 53 58 49 47 45 39
235 172 205 229 199 160 243 225 233 243 226 215 229 233 244 266 230 208 226 240 238 163 214 253 233 182 169 162 173 171 175 155 156 160 155 155 162 173 177 174 159 163 164 166 163 147 149 146 143 142 137 127 121 117 118 113 102 111 116 108 67 89 113 117 116 110 101 95 93 75 46 50 61 71 50 39 51 54 51 50 59 63 58 49 49 49
247 169 213 228 227 199 245 244 225 243 243 212 207 225 240 248 266 266 252 319 336 315 227 286 89 128 125 165 177 149 154 160 143 150 156 174 181 184 182 177 152 147 161 151 151 161 144 149 144 146 137 131 135 136 131 125 116 89 53 59 35 86 118 122 119 115 104 91 91 86 73 76 56 61 71 51 46 49 50 52 53 59 55 47 40 43
245 119 210 200 217 240 263 267 252 7 303 192 220 257 250 249 259 272 268 272 308 251 213 113 303 202 184 153 142 132 140 179 159 156 158 167 165 182 190 182 171 156 148 151 160 165 162 152 145 145 142 143 146 142 130 119 110 83 53 38 47 75 130 122 112 102 96 86 81 74 64 65 55 56 72 79 71 65 56 57 68 75 70 54 49 57
139 215 202 189 221 234 233 252 170 230 256 228 198 214 222 221 204 222 223 222 213 218 190 168 136 136 262 161 144 150 158 168 162 147 149 164 171 170 172 167 159 150 153 149 146 141 134 142 143 144 141 145 145 141 135 122 105 83 66 34 23 75 126 126 118 102 86 75 75 70 63 66 61 53 64 83 105 101 85 68 63 64 85 77 58 60
218 222 188 208 214 232 235 161 173 215 248 234 203 214 220 206 194 214 212 216 197 181 174 196 152 162 180 212 216 176 180 159 165 152 132 154 173 172 168 156 154 161 155 152 142 145 148 147 142 140 144 142 140 131 129 111 105 94 73 27 349 73 131 139 123 109 103 92 75 58 70 78 75 60 74 81 103 121 125 124 87 79 82 85 78 67